Wind_Speed
3 3 7 12 6 7 3 4 8 16 10 6 15 16 8 8 7 8 8 8 8 12 10 21 22 24 26 26 26 23 18 16 19 20 22 19 17 14 17 16 16 12 12 12
4 7 12 5 4 5 5 7 17 12 5 10 3 16 6 10 13 15 10 8 8 6 9 13 21 21 27 29 29 25 20 19 21 23 23 20 19 16 15 16 15 13 15 16
7 12 2 3 6 5 10 6 13 8 4 3 3 7 6 7 1 5 6 6 6 11 9 12 16 23 24 28 32 28 23 21 21 22 20 19 17 16 15 15 14 15 14 17
6 9 8 8 9 4 8 15 14 6 2 4 5 6 6 5 4 6 8 9 11 10 7 11 17 22 24 28 30 28 24 22 23 23 21 24 20 16 16 19 17 15 14 13
10 4 6 5 9 7 11 6 5 4 3 2 2 1 7 3 6 14 12 11 11 12 12 16 19 29 28 27 31 29 26 25 26 25 22 24 21 18 17 18 16 17 16 14
9 2 5 8 8 7 7 2 5 5 3 1 3 4 8 4 7 5 11 14 14 13 12 16 24 24 24 26 33 32 29 28 27 30 24 24 21 18 13 17 16 19 17 16
4 13 5 5 6 4 4 5 3 5 4 7 1 2 9 13 7 11 8 14 17 18 17 16 17 21 24 28 25 31 30 30 29 31 27 26 22 19 16 19 19 20 18 18
5 10 8 3 8 6 3 7 5 7 3 5 3 4 7 4 6 7 8 9 10 9 13 15 19 26 28 31 32 30 34 32 31 31 29 28 22 19 18 15 16 21 20 20
5 8 2 3 2 6 4 5 4 6 2 3 4 8 9 6 1 6 8 7 12 15 17 18 18 28 30 32 33 35 37 34 35 33 31 29 26 23 19 15 14 19 20 16
6 6 6 11 4 4 7 6 2 3 3 4 4 5 5 7 8 8 10 13 11 11 13 14 18 27 32 33 33 32 38 39 39 36 33 30 28 25 22 17 15 12 16 15
1 3 7 1 5 6 1 3 4 5 5 5 2 6 8 9 10 10 10 11 14 11 11 13 16 24 27 27 28 31 34 32 34 36 35 32 30 28 24 20 17 18 15 16
2 3 4 9 3 5 1 3 5 5 7 4 5 6 4 8 11 7 9 10 8 9 9 12 14 21 27 33 33 34 31 32 35 37 36 34 31 30 27 25 20 17 18 17
5 2 4 9 6 6 6 5 3 4 3 3 5 6 3 5 7 6 8 6 4 6 3 10 13 16 25 30 29 31 31 32 34 32 34 34 33 30 29 26 25 22 20 18
5 2 4 5 4 3 4 6 4 2 2 3 5 7 9 8 7 11 8 8 7 6 6 12 14 16 24 26 25 19 24 29 32 32 32 35 34 32 30 29 27 24 23 21
4 3 3 6 8 5 6 6 5 6 5 5 7 7 9 8 10 9 7 6 7 8 9 12 13 14 17 23 33 38 30 30 35 33 32 34 33 32 29 28 26 24 23 22
1 4 2 6 6 8 10 11 9 8 7 6 5 5 4 10 9 7 9 9 12 10 12 9 13 13 16 25 31 31 30 37 36 34 31 32 31 31 29 26 23 23 22 19
4 4 2 6 2 6 9 8 5 4 3 1 1 4 10 11 9 10 9 10 9 9 10 11 15 16 21 26 29 30 33 27 27 28 30 30 31 32 30 27 24 20 22 18
5 4 2 4 2 5 7 2 2 6 4 4 3 6 9 10 14 11 7 10 9 7 8 10 11 17 21 23 27 24 24 34 33 31 33 31 28 29 24 20 14 23 19 17
5 4 2 2 3 7 10 8 2 6 6 2 4 9 9 15 9 7 4 4 9 7 9 11 19 21 24 26 27 28 27 29 27 25 31 32 29 25 23 20 17 20 14 12
3 3 4 3 3 5 2 9 11 10 4 2 3 5 8 11 3 5 9 11 4 3 7 11 16 18 22 24 28 28 26 28 27 30 33 30 25 21 20 16 16 14 13 10
5 3 3 4 5 5 3 14 8 5 4 2 2 2 4 3 5 15 19 10 7 10 10 11 20 20 25 28 30 24 25 26 31 29 27 25 24 20 15 13 13 12 10 9
3 2 3 2 3 6 5 7 1 4 3 3 4 3 4 7 12 12 6 6 10 9 14 7 15 19 23 29 29 24 24 26 24 21 21 23 22 19 16 16 14 12 11 11
3 4 2 5 4 4 5 7 7 5 6 4 5 4 5 7 7 11 6 6 5 7 13 10 12 15 25 29 31 26 25 22 21 19 20 21 19 18 17 16 14 13 12 11
3 1 4 3 4 6 9 10 8 8 14 5 8 7 5 8 8 12 7 4 5 6 7 17 3 12 17 27 30 29 27 24 24 24 22 20 20 19 17 14 14 16 13 11
5 2 5 7 11 15 18 7 9 10 10 8 9 11 8 7 10 6 11 6 2 3 6 10 13 12 17 27 28 27 27 27 24 20 19 19 19 19 17 14 13 14 13 11
5 6 4 7 10 8 15 5 16 16 15 9 9 11 10 6 8 7 11 8 2 2 6 13 13 14 13 23 26 26 26 26 25 22 21 21 20 16 14 13 12 12 14 14
Wind_Direction
328 32 252 250 210 232 266 256 257 284 270 162 211 236 236 217 197 214 224 215 200 178 182 184 185 188 193 195 195 197 189 192 187 182 178 180 187 185 183 189 194 200 197 187
357 249 243 248 267 235 242 275 282 277 210 178 145 247 237 206 216 205 204 208 197 141 144 163 172 178 190 195 193 195 192 190 187 184 183 186 182 187 189 189 196 201 194 178
191 244 36 252 286 304 283 221 272 238 337 201 109 295 252 239 45 176 207 200 196 189 162 165 177 176 183 187 194 194 193 191 189 184 181 179 182 190 196 197 204 204 202 198
226 273 239 269 276 157 265 277 256 256 116 222 142 272 277 281 265 212 209 206 203 199 170 170 176 183 181 190 195 194 195 192 186 182 183 179 182 186 199 205 211 211 209 205
239 243 224 230 242 171 238 283 260 266 169 46 243 49 269 3 264 232 208 212 205 195 181 181 186 188 181 184 188 196 197 192 186 187 186 185 192 196 190 200 208 212 217 216
234 284 177 222 256 190 267 295 35 43 71 23 273 133 288 226 222 251 191 197 202 197 192 190 189 182 180 175 188 196 195 193 188 193 193 193 195 202 203 203 207 204 214 212
304 258 255 191 274 331 87 61 329 336 356 238 34 114 241 263 248 239 175 195 197 195 188 176 179 180 177 180 179 188 192 192 190 197 200 200 202 204 210 212 211 210 215 221
190 312 174 177 188 215 217 156 162 228 214 256 309 256 267 323 282 192 179 192 168 170 187 186 184 182 179 178 181 184 191 193 194 197 204 202 207 210 202 210 212 210 216 219
164 266 216 254 112 122 277 228 208 108 25 49 258 292 317 331 143 175 147 158 168 183 177 182 181 185 183 181 183 182 189 194 197 197 205 207 205 208 212 215 222 222 212 219
228 262 240 277 171 242 165 168 72 16 166 244 280 281 241 303 262 237 162 198 194 190 185 183 177 183 185 183 184 183 190 194 200 198 204 210 208 209 209 216 220 206 204 216
43 181 280 182 182 203 165 239 47 121 131 176 193 264 214 229 237 236 232 211 201 189 171 183 187 180 179 177 182 184 190 194 198 203 207 213 215 212 216 223 227 224 217 221
300 173 272 240 265 320 123 86 137 123 262 173 161 267 268 255 261 226 235 224 213 221 162 179 185 163 170 178 186 187 187 189 200 204 208 212 216 219 222 222 222 212 218 221
334 355 338 344 11 7 37 18 97 105 67 213 139 266 309 340 290 275 289 243 245 250 234 173 172 174 175 182 187 184 188 191 198 200 206 213 217 219 222 220 220 224 227 230
97 77 160 207 229 253 300 339 353 102 113 217 221 279 317 311 255 266 238 263 226 238 197 175 172 180 181 181 174 178 195 191 195 200 205 212 216 219 223 225 226 226 229 231
74 283 229 240 257 260 259 238 259 230 209 176 255 209 266 274 283 241 229 237 229 212 204 184 173 177 174 167 166 201 197 190 194 199 204 212 215 218 222 227 231 234 234 233
192 257 293 278 229 249 285 279 255 225 243 230 249 268 223 301 285 272 199 178 229 233 201 199 183 183 176 172 178 185 182 190 203 198 202 210 213 217 218 223 228 236 243 249
189 193 195 259 233 338 298 229 192 135 89 261 181 248 328 314 302 273 239 184 192 218 217 198 191 189 189 181 177 179 188 180 187 200 202 206 211 218 221 224 228 234 240 246
181 145 168 273 248 222 250 318 336 114 104 337 285 315 320 318 309 298 262 191 197 182 218 207 183 185 191 186 184 178 175 181 193 200 207 211 214 219 223 227 217 243 239 245
181 122 249 211 202 289 303 295 201 184 217 283 310 336 338 324 322 274 286 246 183 176 187 200 181 177 179 177 180 173 171 179 186 192 203 214 217 222 228 226 216 232 225 229
95 24 160 138 198 250 256 319 333 319 261 351 1 354 345 338 13 277 9 322 238 178 186 169 171 174 169 177 173 170 174 179 187 198 207 213 211 213 219 224 233 210 204 207
325 336 239 232 227 275 328 309 305 159 246 286 312 289 322 323 231 289 307 318 342 353 344 189 171 179 182 175 172 171 177 187 201 204 206 207 205 205 209 211 206 199 197 214
227 237 268 292 250 270 339 338 52 255 283 250 280 255 290 274 297 316 305 358 21 1 359 233 170 180 180 176 174 171 186 195 192 188 192 198 201 201 194 188 186 192 199 206
281 192 242 205 249 267 248 240 274 260 263 252 267 254 279 301 314 325 316 339 28 19 356 353 203 176 171 179 184 181 193 188 177 182 186 185 188 184 184 183 187 190 197 211
283 230 248 331 265 261 285 284 252 239 246 259 260 275 287 291 314 318 343 4 334 7 16 9 4 186 165 185 190 193 186 182 181 178 177 179 177 176 182 184 194 196 206 217
220 219 241 260 279 283 283 288 282 270 251 250 260 273 261 285 301 310 305 338 259 1 11 17 16 277 193 191 194 189 180 177 177 176 179 177 178 176 178 189 202 217 227 241
188 220 186 251 259 256 274 291 308 311 284 250 242 276 273 235 272 300 301 290 313 256 18 17 352 326 220 189 186 179 175 176 173 174 174 173 173 175 183 196 211 228 246 253
Height
775 794 806 791 790 787 790 797 799 774 757 771 771 765 761 757 761 764 761 761 761 760 761 766 773 776 780 784 789 794 796 799 801 802 805 809 812 815 817 820 821 822 823 824
791 804 779 776 778 785 791 797 787 769 753 764 770 768 756 754 750 751 757 760 759 760 763 767 770 775 778 781 786 792 794 798 800 802 805 808 811 814 816 819 820 821 822 823
798 777 767 773 778 787 784 794 778 778 758 760 766 779 765 751 749 749 751 752 755 757 761 765 768 771 777 781 784 788 792 796 800 803 806 810 812 813 815 818 819 819 822 823
786 764 771 775 781 781 804 760 765 767 776 797 765 810 774 759 758 754 752 752 752 755 757 759 763 768 774 778 785 787 791 795 799 803 806 808 809 811 813 815 817 819 821 823
782 768 772 779 774 768 779 755 761 756 770 777 777 797 771 762 761 748 750 747 747 749 752 756 757 760 768 776 779 785 790 794 797 802 805 808 810 811 813 815 817 818 820 821
767 751 758 762 752 755 750 755 770 783 792 810 780 787 776 766 750 737 735 737 740 744 748 752 756 762 768 775 777 783 787 791 794 799 803 807 809 810 812 814 815 817 818 820
770 761 751 747 762 751 761 786 817 816 821 817 790 792 774 733 732 725 729 729 728 731 737 745 751 757 765 771 776 779 784 787 791 796 800 804 807 809 811 813 814 815 817 818
795 789 758 742 755 761 764 781 814 825 827 808 785 789 760 727 717 715 717 719 725 732 734 740 743 749 757 763 769 775 779 785 788 793 797 801 805 806 808 811 812 815 816 817
800 787 740 738 740 747 762 781 765 800 807 814 797 770 741 726 718 716 724 722 723 721 724 729 738 744 750 756 762 767 774 781 785 788 794 798 801 804 806 808 811 812 815 817
766 787 745 736 734 737 750 752 782 802 807 815 803 786 778 738 727 713 723 720 719 718 722 724 728 735 742 749 756 764 768 773 779 785 790 795 798 801 804 806 809 810 813 815
762 776 759 745 752 754 757 766 775 784 800 812 817 796 743 730 723 718 713 711 712 714 716 722 724 729 739 749 755 759 765 771 776 781 785 791 795 799 802 804 806 808 811 813
764 782 786 763 737 734 739 755 773 796 793 803 805 790 728 724 717 713 709 710 707 708 714 715 720 727 735 742 746 752 761 766 771 775 781 786 791 796 799 801 803 806 808 810
766 787 801 778 758 749 761 758 762 780 790 791 799 783 726 722 715 711 715 710 710 709 708 712 718 723 728 735 742 747 755 761 766 772 777 782 786 791 795 797 800 803 805 805
766 788 793 802 786 774 774 765 760 770 788 789 783 761 741 731 725 713 710 711 712 710 710 710 713 717 723 730 740 749 754 758 762 767 772 777 781 786 790 793 796 799 801 803
779 792 783 781 777 771 766 766 764 767 764 773 761 762 742 732 725 715 707 711 715 711 710 709 710 713 719 729 737 736 747 753 757 763 768 772 778 782 786 790 793 795 797 798
779 792 782 785 772 769 767 757 752 755 751 754 747 746 726 720 713 706 704 709 710 712 706 708 708 712 716 722 728 733 739 745 754 757 763 769 774 779 782 786 789 792 793 795
786 790 792 795 769 769 776 749 742 744 743 744 755 740 732 720 714 705 699 701 704 706 705 702 701 706 712 715 723 729 732 741 749 755 759 765 769 775 778 782 786 789 789 790
783 788 793 799 782 800 757 734 735 742 747 747 742 738 733 728 715 706 693 692 693 698 702 699 698 703 709 715 719 725 732 735 747 750 756 761 767 772 775 779 783 785 786 787
776 789 793 796 799 775 754 742 741 743 747 747 744 738 731 722 711 703 693 686 683 689 694 696 695 699 705 711 717 722 729 736 743 747 752 757 763 768 771 777 779 780 781 783
779 782 787 801 792 788 758 748 740 739 756 743 742 741 738 727 730 716 702 699 685 682 688 694 699 704 706 710 716 722 727 734 739 744 750 755 761 765 769 772 775 777 778 782
793 791 790 791 790 772 758 750 741 760 760 743 741 740 739 740 732 715 710 701 696 697 696 695 696 701 705 710 714 720 726 730 734 741 747 753 759 763 766 769 773 775 777 780
796 796 795 792 788 781 755 748 752 753 744 741 738 737 734 729 723 714 712 705 701 700 696 699 696 700 704 709 713 718 725 728 734 740 745 751 756 760 764 767 771 773 775 778
794 790 794 790 777 761 755 754 749 748 745 738 736 733 731 726 720 717 713 706 703 701 700 699 702 704 701 706 710 716 720 728 732 738 744 749 755 759 763 766 769 772 775 777
784 781 786 782 763 761 754 747 746 742 739 736 733 730 731 726 719 717 713 709 708 703 704 702 703 709 703 706 707 711 718 726 732 736 743 748 752 757 761 765 769 772 775 777
784 780 779 776 766 757 747 742 742 737 733 732 730 727 727 725 718 714 711 707 705 705 703 705 705 712 703 705 708 711 717 722 729 735 740 745 750 754 759 764 768 772 774 775
776 775 780 769 760 759 746 740 737 733 730 729 728 722 720 722 719 713 708 702 699 704 699 699 705 707 705 705 708 711 716 720 727 735 740 744 748 753 758 763 766 769 771 772